"startDT [UTC]","vpos","CH4 [ppm]","stdev(CH4) [ppm]","CO2 [ppm]","stdev(CO2) [ppm]","H2O [ppm]","stdev(H2O)","p_LGR [torr]","T_LGR [C]","mt1_LGR [us]","mt2_LGR [us]","T_ECpre [C]","T_EC1 [C]","T_EC2 [C]","p_inlet [hPa]","p_in [hPa]","p_out [hPa]","T_inlet [C]","RH_inlet [%]","dwpt_inlet [C]","T_vent [C]","RH_vent [%]","dwpt_vent [C]","flow_vent [l min-1]","flow_inlet [l min-1]","dwpt_sample [C]","T_room [C]"
2013-03-21 00:00:00,0.0,1.9227,0.0009,404.54,0.36,2.7,10.3,138.07,30.19,24.65,36.42,0.04,-272.76,-272.76,-43,561,-944,23.8,2.0,-28.6,24.0,2.0,-28.1,5.73,2.42,-29.1,29.1
2013-03-21 00:01:00,0.0,1.9223,0.0008,404.58,0.40,2.9,11.0,138.07,30.19,24.65,36.42,0.04,-272.76,-272.76,-43,561,-944,23.8,2.0,-28.6,24.0,2.0,-28.0,5.73,2.42,-29.1,29.1
2013-03-21 00:02:00,0.0,1.9227,0.0011,404.59,0.36,3.6,13.9,138.07,30.19,24.65,36.42,0.04,-272.75,-272.76,-43,561,-944,23.8,2.0,-28.5,24.0,2.0,-28.0,5.73,2.42,-29.1,29.1
2013-03-21 00:03:00,0.0,1.9221,0.0010,404.59,0.33,1.8,7.1,138.07,30.18,24.66,36.42,0.04,-272.75,-272.76,-43,561,-943,23.8,2.0,-28.5,24.0,2.0,-28.1,5.73,2.42,-29.1,29.1
2013-03-21 00:04:00,0.0,1.9225,0.0011,404.65,0.36,3.3,12.8,138.07,30.18,24.66,36.42,0.04,-272.75,-272.75,-43,561,-943,23.8,2.0,-28.6,24.0,2.0,-28.1,5.73,2.42,-29.1,29.1
2013-03-21 00:05:00,0.0,1.9221,0.0010,404.57,0.31,3.0,9.2,138.07,30.19,24.66,36.42,0.04,-272.75,-272.76,-44,561,-943,23.8,2.0,-28.6,24.0,2.0,-28.0,5.73,2.42,-29.0,29.1
2013-03-21 00:06:00,0.0,1.9222,0.0010,404.63,0.32,4.4,13.1,138.07,30.18,24.65,36.42,0.04,-272.75,-272.76,-44,561,-944,23.8,2.0,-28.6,24.0,2.0,-28.1,5.73,2.42,-29.0,29.1
2013-03-21 00:07:00,0.0,1.9224,0.0012,404.57,0.36,2.7,10.8,138.07,30.18,24.65,36.42,0.04,-272.75,-272.76,-44,561,-944,23.8,1.9,-28.6,24.0,2.0,-28.1,5.73,2.42,-29.0,29.1
2013-03-21 00:08:00,0.0,1.9221,0.0011,404.69,0.29,3.7,10.9,138.07,30.18,24.66,36.41,0.04,-272.76,-272.76,-44,561,-944,23.8,2.0,-28.6,24.0,2.0,-28.1,5.73,2.42,-29.0,29.1
2013-03-21 00:09:00,0.0,1.9222,0.0011,404.56,0.30,2.2,8.3,138.07,30.18,24.66,36.42,0.04,-272.75,-272.75,-44,561,-944,23.8,2.0,-28.6,24.0,2.0,-28.0,5.73,2.41,-29.0,29.1
2013-03-21 00:10:00,0.0,1.9226,0.0009,404.53,0.34,2.3,11.1,138.07,30.18,24.65,36.42,0.04,-272.75,-272.76,-44,561,-943,23.8,2.0,-28.6,24.0,2.0,-28.0,5.73,2.42,-29.0,29.1
2013-03-21 00:11:00,0.0,1.9220,0.0011,404.65,0.31,3.3,10.6,138.07,30.18,24.66,36.42,0.04,-272.76,-272.76,-44,561,-943,23.8,2.0,-28.6,24.0,2.0,-28.1,5.73,2.42,-29.0,29.2
2013-03-21 00:12:00,0.0,1.9226,0.0010,404.53,0.31,1.9,11.5,138.07,30.18,24.65,36.42,0.04,-272.75,-272.75,-44,561,-943,23.8,2.0,-28.6,24.0,2.0,-28.0,5.73,2.42,-28.9,29.1
2013-03-21 00:13:00,0.0,1.9225,0.0011,404.71,0.35,3.0,9.1,138.07,30.18,24.65,36.42,0.04,-272.76,-272.75,-44,561,-944,23.8,1.9,-28.6,24.0,2.0,-28.1,5.73,2.42,-28.9,29.1
2013-03-21 00:14:00,0.0,1.9224,0.0011,404.65,0.32,5.0,16.4,138.07,30.18,24.65,36.42,0.04,-272.76,-272.76,-43,561,-944,23.8,2.0,-28.5,24.0,2.0,-28.0,5.73,2.41,-28.9,29.1
2013-03-21 00:15:00,0.0,1.9221,0.0010,404.71,0.35,10.5,17.3,138.07,30.18,24.65,36.42,0.04,-272.75,-272.76,-43,561,-944,23.8,2.0,-28.4,24.0,2.0,-28.0,5.73,2.42,-28.9,29.2
2013-03-21 00:16:00,0.0,1.9222,0.0012,404.53,0.35,3.5,11.2,138.07,30.18,24.65,36.42,0.04,-272.75,-272.75,-43,561,-944,23.8,2.0,-28.4,24.0,2.1,-27.9,5.73,2.41,-28.9,29.2
2013-03-21 00:17:00,0.0,1.9220,0.0011,404.70,0.36,5.2,14.3,138.07,30.18,24.66,36.42,0.04,-272.75,-272.75,-43,561,-944,23.8,2.0,-28.4,24.0,2.1,-27.9,5.73,2.41,-28.9,29.2
2013-03-21 00:18:00,0.0,1.9221,0.0010,404.63,0.32,2.6,9.1,138.07,30.18,24.65,36.42,0.04,-272.75,-272.76,-43,561,-943,23.9,2.0,-28.2,24.0,2.1,-27.9,5.73,2.42,-28.8,29.1
2013-03-21 00:19:00,0.0,1.9222,0.0011,404.61,0.30,1.0,6.5,138.07,30.18,24.65,36.42,0.04,-272.75,-272.76,-43,561,-943,23.8,2.0,-28.3,24.0,2.1,-27.7,5.73,2.42,-28.8,29.2
2013-03-21 00:20:00,0.0,1.9219,0.0010,404.59,0.36,2.7,9.3,138.07,30.18,24.65,36.42,0.04,-272.75,-272.75,-43,561,-943,23.8,2.0,-28.3,24.0,2.1,-27.7,5.73,2.41,-28.8,29.2
2013-03-21 00:21:00,0.0,1.9223,0.0014,404.63,0.32,3.1,10.5,138.07,30.19,24.65,36.42,0.04,-272.76,-272.76,-43,561,-943,23.9,2.0,-28.2,24.0,2.1,-27.8,5.73,2.42,-28.8,29.1
2013-03-21 00:22:00,0.0,1.9220,0.0010,404.62,0.33,7.4,17.3,138.07,30.19,24.66,36.42,0.04,-272.76,-272.76,-43,561,-944,23.9,2.0,-28.1,24.0,2.1,-27.8,5.73,2.42,-28.8,29.2
2013-03-21 00:23:00,0.0,1.9223,0.0010,404.72,0.30,5.7,14.1,138.07,30.19,24.65,36.42,0.04,-272.75,-272.76,-44,561,-944,23.9,2.0,-28.1,24.0,2.1,-27.6,5.73,2.42,-28.8,29.2
2013-03-21 00:24:00,0.0,1.9220,0.0011,404.64,0.35,5.6,17.7,138.06,30.19,24.66,36.42,0.04,-272.75,-272.76,-44,561,-944,23.9,2.0,-28.1,24.0,2.1,-27.6,5.73,2.42,-28.7,29.2
2013-03-21 00:25:00,0.0,1.9219,0.0010,404.62,0.36,3.1,11.5,138.07,30.19,24.65,36.43,0.04,-272.76,-272.76,-44,561,-944,23.9,2.0,-28.1,24.0,2.1,-27.6,5.73,2.42,-28.7,29.2
2013-03-21 00:26:00,0.0,1.9221,0.0009,404.69,0.28,5.4,12.2,138.07,30.19,24.66,36.42,0.04,-272.75,-272.75,-44,561,-944,23.9,2.0,-28.1,24.0,2.1,-27.6,5.73,2.41,-28.7,29.2
2013-03-21 00:27:00,0.0,1.9222,0.0009,404.70,0.40,5.3,15.5,138.06,30.18,24.66,36.41,0.04,-272.75,-272.76,-44,561,-943,23.9,2.0,-28.1,24.0,2.1,-27.6,5.73,2.42,-28.7,29.2
2013-03-21 00:28:00,0.0,1.9222,0.0012,404.63,0.33,3.8,12.3,138.06,30.18,24.65,36.42,0.04,-272.76,-272.76,-44,561,-943,23.9,2.0,-28.1,24.0,2.1,-27.6,5.73,2.42,-28.7,29.2
2013-03-21 00:29:00,0.0,1.9221,0.0010,404.69,0.29,4.6,11.7,138.06,30.18,24.66,36.42,0.04,-272.75,-272.75,-44,561,-943,23.9,2.0,-28.1,24.0,2.1,-27.6,5.73,2.42,-28.7,29.2
2013-03-21 00:30:00,0.0,1.9226,0.0012,404.65,0.34,10.6,18.3,138.06,30.19,24.65,36.43,0.04,-272.75,-272.76,-44,561,-944,23.9,2.0,-28.2,24.0,2.1,-27.7,5.73,2.41,-28.6,29.2
2013-03-21 00:31:00,0.0,1.9225,0.0009,404.63,0.29,5.4,13.4,138.06,30.19,24.65,36.42,0.04,-272.76,-272.76,-44,561,-944,23.9,2.0,-28.2,24.0,2.1,-27.7,5.73,2.41,-28.6,29.2
2013-03-21 00:32:00,0.0,1.9222,0.0013,404.62,0.36,4.4,11.0,138.06,30.19,24.66,36.42,0.04,-272.75,-272.76,-44,561,-944,23.9,2.0,-28.2,24.0,2.1,-27.7,5.73,2.41,-28.6,29.2
2013-03-21 00:33:00,0.0,1.9223,0.0010,404.72,0.35,4.2,12.2,138.06,30.19,24.65,36.42,0.04,-272.76,-272.76,-44,561,-944,24.0,2.0,-28.2,24.0,2.1,-27.8,5.73,2.41,-28.6,29.2
2013-03-21 00:34:00,0.0,1.9219,0.0012,404.69,0.40,8.0,18.3,138.07,30.19,24.66,36.42,0.04,-272.76,-272.76,-44,561,-944,23.9,2.0,-28.1,24.0,2.1,-27.7,5.73,2.41,-28.6,29.2
2013-03-21 00:35:00,0.0,1.9221,0.0011,404.71,0.32,6.5,15.0,138.06,30.19,24.66,36.42,0.04,-272.76,-272.76,-44,562,-944,24.0,2.0,-28.1,24.0,2.1,-27.7,5.73,2.41,-28.6,29.2
2013-03-21 00:36:00,0.0,1.9222,0.0010,404.76,0.33,10.0,21.4,138.06,30.20,24.66,36.41,0.04,-272.75,-272.75,-44,561,-944,24.0,2.0,-28.1,24.1,2.1,-27.6,5.73,2.41,-28.6,29.2
2013-03-21 00:37:00,0.0,1.9220,0.0009,404.75,0.32,13.6,24.7,138.06,30.20,24.66,36.41,0.04,-272.75,-272.76,-44,562,-943,24.0,2.0,-28.0,24.0,2.1,-27.6,5.73,2.41,-28.5,29.2
2013-03-21 00:38:00,0.0,1.9223,0.0010,404.68,0.35,7.8,16.7,138.06,30.20,24.66,36.41,0.04,-272.76,-272.76,-44,562,-943,24.0,2.0,-28.0,24.1,2.1,-27.6,5.73,2.41,-28.5,29.2
2013-03-21 00:39:00,0.0,1.9222,0.0010,404.74,0.32,10.3,19.5,138.06,30.20,24.65,36.42,0.04,-272.75,-272.75,-44,561,-943,24.0,2.0,-28.0,24.0,2.1,-27.6,5.73,2.41,-28.5,29.2
2013-03-21 00:40:00,0.0,1.9224,0.0010,404.68,0.31,7.3,15.7,138.06,30.20,24.65,36.42,0.04,-272.75,-272.75,-44,562,-944,24.0,2.0,-28.0,24.1,2.1,-27.5,5.73,2.42,-28.5,29.2
2013-03-21 00:41:00,0.0,1.9221,0.0009,404.69,0.33,7.2,14.3,138.06,30.20,24.66,36.42,0.04,-272.76,-272.76,-44,562,-944,24.0,2.1,-28.0,24.1,2.1,-27.6,5.73,2.41,-28.5,29.2
2013-03-21 00:42:00,0.0,1.9222,0.0009,404.59,0.33,6.9,17.5,138.06,30.20,24.66,36.43,0.04,-272.75,-272.75,-44,562,-944,24.0,2.0,-28.0,24.1,2.1,-27.6,5.73,2.41,-28.5,29.2
2013-03-21 00:43:00,0.0,1.9222,0.0009,404.73,0.34,7.8,15.7,138.06,30.21,24.66,36.42,0.04,-272.75,-272.75,-44,562,-944,24.0,2.1,-27.9,24.1,2.1,-27.6,5.73,2.42,-28.4,29.2
2013-03-21 00:44:00,0.0,1.9225,0.0011,404.60,0.34,11.1,17.4,138.06,30.21,24.65,36.42,0.04,-272.75,-272.76,-43,562,-944,24.0,2.1,-27.9,24.1,2.1,-27.4,5.73,2.41,-28.4,29.2
2013-03-21 00:45:00,0.0,1.9220,0.0010,404.76,0.32,9.0,15.8,138.06,30.21,24.66,36.42,0.04,-272.75,-272.75,-44,562,-943,24.0,2.1,-27.9,24.1,2.1,-27.4,5.73,2.41,-28.4,29.2
2013-03-21 00:46:00,0.0,1.9223,0.0011,404.65,0.34,13.4,24.5,138.06,30.21,24.65,36.43,0.04,-272.75,-272.75,-44,562,-943,24.0,2.1,-27.9,24.1,2.1,-27.4,5.73,2.42,-28.4,29.2
2013-03-21 00:47:00,0.0,1.9222,0.0010,404.73,0.38,11.1,20.6,138.06,30.21,24.66,36.42,0.04,-272.75,-272.76,-44,562,-944,24.0,2.1,-27.8,24.1,2.2,-27.3,5.73,2.42,-28.4,29.2
2013-03-21 00:48:00,0.0,1.9223,0.0009,404.72,0.32,5.6,15.3,138.06,30.21,24.65,36.42,0.04,-272.76,-272.75,-44,562,-944,24.0,2.1,-27.8,24.1,2.2,-27.3,5.73,2.42,-28.4,29.2
2013-03-21 00:49:00,0.0,1.9222,0.0012,404.71,0.34,7.8,15.9,138.06,30.21,24.65,36.42,0.04,-272.76,-272.76,-44,562,-944,24.0,2.1,-27.7,24.1,2.2,-27.3,5.73,2.42,-28.3,29.3
2013-03-21 00:50:00,0.0,1.9221,0.0009,404.82,0.34,10.0,18.2,138.06,30.22,24.65,36.42,0.04,-272.75,-272.75,-44,562,-944,24.0,2.1,-27.7,24.1,2.2,-27.3,5.73,2.42,-28.3,29.3
2013-03-21 00:51:00,0.0,1.9217,0.0011,404.77,0.37,5.9,13.9,138.06,30.22,24.66,36.42,0.04,-272.76,-272.75,-44,562,-944,24.0,2.1,-27.7,24.1,2.2,-27.3,5.73,2.42,-28.3,29.3
2013-03-21 00:52:00,0.0,1.9220,0.0010,404.71,0.33,8.7,18.4,138.06,30.22,24.65,36.42,0.04,-272.76,-272.75,-44,562,-943,24.0,2.1,-27.6,24.1,2.2,-27.2,5.73,2.42,-28.3,29.3
2013-03-21 00:53:00,0.0,1.9220,0.0009,404.83,0.32,8.2,15.6,138.06,30.22,24.66,36.42,0.04,-272.76,-272.75,-44,562,-944,24.0,2.1,-27.5,24.1,2.2,-27.2,5.73,2.42,-28.3,29.3
2013-03-21 00:54:00,0.0,1.9222,0.0012,404.85,0.30,10.9,19.3,138.06,30.22,24.65,36.41,0.04,-272.75,-272.76,-44,562,-944,24.0,2.2,-27.5,24.1,2.2,-26.9,5.73,2.43,-28.3,29.3
2013-03-21 00:55:00,0.0,1.9219,0.0009,404.71,0.33,5.4,15.8,138.06,30.22,24.65,36.42,0.04,-272.75,-272.76,-44,562,-944,24.0,2.2,-27.4,24.1,2.2,-27.0,5.73,2.43,-28.2,29.3
2013-03-21 00:56:00,0.0,1.9222,0.0010,404.80,0.31,7.2,14.8,138.06,30.22,24.65,36.42,0.04,-272.75,-272.75,-44,562,-944,24.0,2.2,-27.4,24.1,2.3,-26.9,5.73,2.42,-28.2,29.3
2013-03-21 00:57:00,0.0,1.9217,0.0012,404.80,0.35,9.9,17.0,138.06,30.22,24.66,36.41,0.04,-272.76,-272.75,-44,562,-944,24.0,2.2,-27.3,24.1,2.3,-26.9,5.73,2.43,-28.2,29.3
2013-03-21 00:58:00,0.0,1.9215,0.0009,404.74,0.34,12.3,22.5,138.06,30.22,24.66,36.42,0.04,-272.76,-272.75,-44,562,-944,24.0,2.2,-27.1,24.1,2.3,-26.7,5.73,2.42,-28.2,29.3
2013-03-21 00:59:00,0.0,1.9220,0.0010,404.84,0.32,12.6,19.5,138.06,30.23,24.66,36.42,0.04,-272.75,-272.75,-44,562,-944,24.0,2.2,-27.1,24.1,2.3,-26.6,5.73,2.42,-28.2,29.3
2013-03-21 01:00:00,0.0,1.9218,0.0010,404.80,0.37,12.5,19.2,138.06,30.23,24.66,36.42,0.04,-272.76,-272.76,-44,562,-943,24.0,2.3,-27.0,24.1,2.3,-26.7,5.73,2.42,-28.2,29.3
2013-03-21 01:01:00,0.0,1.9219,0.0010,404.80,0.31,8.3,17.6,138.06,30.23,24.66,36.42,0.04,-272.76,-272.76,-44,562,-943,24.0,2.3,-26.9,24.1,2.3,-26.4,5.73,2.42,-28.2,29.3
2013-03-21 01:02:00,0.0,1.9220,0.0009,404.82,0.34,12.4,19.0,138.06,30.23,24.66,36.42,0.04,-272.75,-272.75,-44,562,-943,24.0,2.3,-26.8,24.1,2.3,-26.4,5.73,2.42,-28.1,29.3
2013-03-21 01:03:00,0.0,1.9222,0.0010,404.89,0.34,6.9,14.5,138.06,30.23,24.65,36.42,0.04,-272.75,-272.75,-44,562,-944,24.0,2.3,-26.7,24.1,2.4,-26.3,5.73,2.42,-28.1,29.3
2013-03-21 01:04:00,0.0,1.9220,0.0009,404.79,0.33,10.9,19.3,138.06,30.23,24.66,36.42,0.04,-272.76,-272.76,-44,562,-944,24.0,2.3,-26.6,24.1,2.4,-26.2,5.73,2.42,-28.1,29.3
2013-03-21 01:05:00,0.0,1.9223,0.0012,404.81,0.35,15.0,19.5,138.06,30.23,24.65,36.42,0.04,-272.75,-272.76,-44,562,-944,24.0,2.3,-26.5,24.1,2.4,-26.0,5.73,2.41,-28.1,29.3
2013-03-21 01:06:00,0.0,1.9223,0.0010,404.82,0.34,12.5,20.2,138.06,30.23,24.66,36.42,0.04,-272.75,-272.75,-44,562,-944,24.0,2.4,-26.5,24.2,2.4,-26.0,5.73,2.41,-28.1,29.3
2013-03-21 01:07:00,0.0,1.9226,0.0011,404.78,0.31,10.9,19.8,138.06,30.23,24.66,36.42,0.04,-272.76,-272.75,-44,562,-944,24.1,2.4,-26.4,24.1,2.4,-26.0,5.73,2.41,-28.1,29.3
2013-03-21 01:08:00,0.0,1.9228,0.0012,404.91,0.34,10.2,19.3,138.06,30.24,24.65,36.42,0.04,-272.76,-272.75,-44,562,-944,24.1,2.4,-26.3,24.2,2.5,-25.8,5.73,2.41,-28.1,29.3
2013-03-21 01:09:00,0.0,1.9226,0.0011,404.85,0.34,15.1,21.7,138.06,30.24,24.66,36.42,0.04,-272.75,-272.75,-44,562,-944,24.0,2.4,-26.2,24.2,2.5,-25.8,5.73,2.41,-28.0,29.4
2013-03-21 01:10:00,0.0,1.9229,0.0010,404.80,0.39,10.1,15.0,138.06,30.24,24.65,36.42,0.04,-272.75,-272.75,-44,562,-944,24.1,2.4,-26.1,24.2,2.5,-25.7,5.73,2.41,-28.0,29.4
2013-03-21 01:11:00,0.0,1.9229,0.0011,404.82,0.34,11.2,18.6,138.06,30.25,24.65,36.42,0.04,-272.75,-272.75,-44,562,-944,24.1,2.4,-26.1,24.2,2.5,-25.7,5.73,2.40,-28.0,29.3
2013-03-21 01:12:00,0.0,1.9227,0.0009,404.93,0.32,18.5,24.4,138.06,30.25,24.66,36.42,0.04,-272.76,-272.76,-44,562,-944,24.1,2.5,-26.0,24.2,2.5,-25.6,5.73,2.41,-28.0,29.4
2013-03-21 01:13:00,0.0,1.9227,0.0012,404.84,0.31,13.5,19.4,138.06,30.25,24.66,36.42,0.04,-272.75,-272.76,-44,562,-943,24.1,2.5,-26.0,24.2,2.5,-25.7,5.73,2.41,-28.0,29.4
2013-03-21 01:14:00,0.0,1.9230,0.0011,404.76,0.34,17.4,23.2,138.06,30.25,24.66,36.42,0.04,-272.75,-272.75,-44,562,-944,24.1,2.5,-25.9,24.2,2.5,-25.8,5.73,2.41,-28.0,29.4
2013-03-21 01:15:00,0.0,1.9231,0.0009,404.86,0.32,12.1,20.9,138.06,30.26,24.66,36.42,0.04,-272.76,-272.76,-44,562,-944,24.1,2.5,-25.9,24.2,2.5,-25.6,5.73,2.41,-27.9,29.4
2013-03-21 01:16:00,0.0,1.9231,0.0011,404.82,0.30,11.3,18.4,138.06,30.26,24.66,36.42,0.04,-272.75,-272.76,-44,562,-944,24.1,2.5,-25.7,24.2,2.5,-25.6,5.73,2.41,-27.9,29.4
2013-03-21 01:17:00,0.0,1.9235,0.0011,404.88,0.38,14.9,22.9,138.06,30.26,24.66,36.42,0.04,-272.75,-272.76,-44,562,-944,24.1,2.5,-25.7,24.2,2.5,-25.5,5.73,2.42,-27.9,29.4
2013-03-21 01:18:00,0.0,1.9236,0.0010,404.81,0.35,14.8,20.3,138.06,30.27,24.65,36.42,0.04,-272.75,-272.76,-44,562,-944,24.1,2.5,-25.7,24.2,2.5,-25.5,5.73,2.42,-27.9,29.4
2013-03-21 01:19:00,0.0,1.9234,0.0010,405.01,0.35,10.7,18.8,138.06,30.27,24.66,36.41,0.04,-272.75,-272.76,-44,562,-944,24.1,2.5,-25.7,24.2,2.5,-25.5,5.73,2.43,-27.9,29.4
2013-03-21 01:20:00,0.0,1.9238,0.0011,404.95,0.33,13.5,24.0,138.06,30.28,24.66,36.42,0.04,-272.75,-272.75,-44,562,-944,24.1,2.5,-25.7,24.2,2.5,-25.5,5.73,2.42,-27.8,29.4
2013-03-21 01:21:00,0.0,1.9238,0.0010,404.95,0.39,14.1,22.9,138.06,30.28,24.66,36.42,0.04,-272.75,-272.75,-44,562,-944,24.1,2.5,-25.7,24.2,2.5,-25.5,5.73,2.43,-27.8,29.4
2013-03-21 01:22:00,0.0,1.9241,0.0009,404.86,0.35,17.1,23.9,138.06,30.28,24.65,36.43,0.04,-272.75,-272.75,-44,562,-944,24.1,2.5,-25.7,24.2,2.5,-25.5,5.73,2.43,-27.8,29.4
2013-03-21 01:23:00,0.0,1.9234,0.0011,404.85,0.32,10.6,18.7,138.06,30.28,24.66,36.42,0.04,-272.75,-272.75,-44,563,-944,24.2,2.5,-25.6,24.2,2.5,-25.5,5.73,2.43,-27.8,29.4
2013-03-21 01:24:00,0.0,1.9239,0.0010,404.90,0.37,15.9,23.1,138.06,30.28,24.65,36.42,0.04,-272.76,-272.75,-44,563,-944,24.2,2.5,-25.6,24.2,2.6,-25.4,5.73,2.42,-27.8,29.4
2013-03-21 01:25:00,0.0,1.9241,0.0011,404.86,0.36,16.8,25.2,138.06,30.29,24.65,36.42,0.04,-272.76,-272.76,-44,563,-945,24.2,2.5,-25.6,24.3,2.6,-25.4,5.73,2.42,-27.7,29.4
2013-03-21 01:26:00,0.0,1.9238,0.0011,404.90,0.40,15.7,24.7,138.06,30.29,24.65,36.42,0.04,-272.75,-272.75,-44,563,-945,24.2,2.5,-25.6,24.3,2.6,-25.4,5.73,2.43,-27.7,29.4
2013-03-21 01:27:00,0.0,1.9239,0.0009,404.85,0.33,18.3,22.5,138.06,30.29,24.65,36.42,0.04,-272.75,-272.75,-44,563,-944,24.2,2.5,-25.6,24.3,2.6,-25.3,5.73,2.42,-27.7,29.4
2013-03-21 01:28:00,0.0,1.9240,0.0010,404.93,0.32,12.0,18.8,138.06,30.29,24.66,36.42,0.04,-272.75,-272.76,-44,563,-944,24.2,2.5,-25.6,24.3,2.6,-25.2,5.73,2.42,-27.7,29.4
2013-03-21 01:29:00,0.0,1.9240,0.0010,404.92,0.32,17.1,21.7,138.06,30.30,24.66,36.43,0.04,-272.75,-272.76,-44,563,-944,24.2,2.5,-25.6,24.3,2.6,-25.2,5.73,2.41,-27.6,29.4
2013-03-21 01:30:00,0.0,1.9242,0.0010,404.94,0.36,23.6,26.1,138.06,30.30,24.66,36.42,0.04,-272.75,-272.75,-44,563,-944,24.3,2.5,-25.6,24.3,2.6,-25.2,5.73,2.41,-27.6,29.4
2013-03-21 01:31:00,0.0,1.9244,0.0011,404.87,0.29,11.8,19.5,138.06,30.30,24.66,36.42,0.04,-272.75,-272.75,-44,563,-944,24.3,2.5,-25.6,24.3,2.6,-25.3,5.73,2.41,-27.6,29.4
2013-03-21 01:32:00,0.0,1.9242,0.0012,404.92,0.31,22.1,23.7,138.06,30.30,24.66,36.42,0.04,-272.76,-272.75,-44,563,-945,24.2,2.5,-25.6,24.3,2.6,-25.2,5.73,2.41,-27.6,29.4
2013-03-21 01:33:00,0.0,1.9245,0.0011,404.92,0.31,21.9,27.4,138.06,30.31,24.66,36.42,0.04,-272.75,-272.75,-44,563,-945,24.2,2.5,-25.7,24.3,2.6,-25.2,5.73,2.41,-27.6,29.4
2013-03-21 01:34:00,0.0,1.9245,0.0010,404.87,0.34,13.5,19.5,138.06,30.31,24.66,36.43,0.04,-272.75,-272.76,-44,563,-944,24.2,2.5,-25.5,24.3,2.6,-25.3,5.73,2.40,-27.6,29.4
2013-03-21 01:35:00,0.0,1.9248,0.0011,404.84,0.31,18.3,24.6,138.06,30.31,24.65,36.42,0.04,-272.75,-272.76,-44,563,-944,24.1,2.6,-25.3,24.3,2.6,-25.2,5.73,2.40,-27.6,29.4
2013-03-21 01:36:00,0.0,1.9243,0.0011,404.81,0.38,17.7,24.1,138.06,30.31,24.66,36.43,0.04,-272.75,-272.75,-44,563,-944,24.1,2.6,-25.3,24.2,2.6,-25.1,5.73,2.41,-27.6,29.4
2013-03-21 01:37:00,0.0,1.9244,0.0009,404.80,0.35,18.2,24.9,138.06,30.31,24.66,36.42,0.04,-272.75,-272.75,-44,563,-944,24.1,2.6,-25.3,24.2,2.6,-25.2,5.73,2.41,-27.6,29.4
2013-03-21 01:38:00,0.0,1.9247,0.0010,404.84,0.27,20.2,23.5,138.06,30.31,24.66,36.43,0.04,-272.75,-272.75,-44,563,-945,24.1,2.6,-25.3,24.2,2.6,-25.2,5.73,2.41,-27.6,29.4
2013-03-21 01:39:00,0.0,1.9251,0.0012,404.93,0.32,28.4,30.1,138.06,30.31,24.65,36.42,0.04,-272.75,-272.76,-44,563,-944,24.0,2.6,-25.3,24.2,2.7,-25.0,5.73,2.41,-27.6,29.4
2013-03-21 01:40:00,0.0,1.9248,0.0010,404.93,0.34,13.8,21.2,138.06,30.31,24.65,36.42,0.04,-272.75,-272.75,-44,563,-944,24.0,2.6,-25.2,24.2,2.6,-25.1,5.73,2.41,-27.7,29.3
2013-03-21 01:41:00,0.0,1.9247,0.0010,404.87,0.34,18.9,22.5,138.06,30.30,24.66,36.42,0.04,-272.75,-272.75,-44,563,-944,24.0,2.6,-25.3,24.2,2.7,-24.9,5.73,2.42,-27.7,29.2
2013-03-21 01:42:00,0.0,1.9244,0.0012,404.79,0.35,22.5,28.6,138.06,30.30,24.66,36.43,0.04,-272.75,-272.75,-44,563,-945,24.0,2.7,-25.1,24.1,2.7,-24.8,5.73,2.42,-27.7,29.2
2013-03-21 01:43:00,0.0,1.9245,0.0009,404.73,0.34,18.2,25.4,138.06,30.29,24.66,36.43,0.04,-272.75,-272.75,-44,563,-945,23.9,2.7,-25.2,24.1,2.8,-24.7,5.73,2.43,-27.7,29.2
2013-03-21 01:44:00,0.0,1.9246,0.0011,404.82,0.34,17.4,23.5,138.06,30.29,24.66,36.42,0.04,-272.75,-272.75,-44,562,-944,23.9,2.7,-25.1,24.1,2.8,-24.7,5.73,2.42,-27.7,29.2
2013-03-21 01:45:00,0.0,1.9248,0.0010,404.87,0.29,17.0,25.0,138.07,30.29,24.66,36.42,0.04,-272.75,-272.75,-44,562,-944,23.8,2.7,-25.0,24.1,2.8,-24.6,5.73,2.43,-27.7,29.1
2013-03-21 01:46:00,0.0,1.9243,0.0012,404.81,0.31,14.1,21.2,138.07,30.28,24.66,36.42,0.04,-272.75,-272.76,-44,562,-945,23.8,2.8,-24.9,24.0,2.8,-24.5,5.73,2.42,-27.7,29.1
2013-03-21 01:47:00,0.0,1.9244,0.0010,404.88,0.32,17.2,25.4,138.07,30.27,24.66,36.42,0.04,-272.75,-272.76,-44,562,-944,23.8,2.8,-24.9,24.0,2.8,-24.5,5.73,2.42,-27.8,29.1
2013-03-21 01:48:00,0.0,1.9245,0.0009,404.73,0.32,22.5,31.5,138.07,30.27,24.66,36.42,0.04,-272.75,-272.76,-44,562,-944,23.7,2.8,-25.0,24.0,2.8,-24.5,5.73,2.43,-27.8,29.1
2013-03-21 01:49:00,0.0,1.9240,0.0011,404.69,0.35,15.6,21.4,138.07,30.26,24.66,36.42,0.04,-272.75,-272.75,-44,562,-944,23.7,2.8,-24.9,24.0,2.8,-24.5,5.73,2.42,-27.8,29.0
2013-03-21 01:50:00,0.0,1.9241,0.0009,404.80,0.32,19.7,23.8,138.07,30.25,24.66,36.42,0.04,-272.75,-272.75,-44,562,-944,23.7,2.8,-24.9,23.9,2.8,-24.5,5.73,2.42,-27.8,29.0
2013-03-21 01:51:00,0.0,1.9240,0.0012,404.58,0.34,22.8,28.9,138.07,30.24,24.66,36.42,0.04,-272.75,-272.76,-43,562,-944,23.6,2.7,-25.1,23.9,2.8,-24.6,5.73,2.43,-27.8,28.9
2013-03-21 01:52:00,0.0,1.9240,0.0010,404.66,0.35,19.7,26.3,138.07,30.23,24.66,36.42,0.04,-272.75,-272.76,-43,562,-943,23.6,2.8,-25.0,23.9,2.8,-24.6,5.73,2.42,-27.9,28.9
2013-03-21 01:53:00,0.0,1.9241,0.0009,404.66,0.37,22.1,27.6,138.07,30.22,24.66,36.42,0.04,-272.75,-272.75,-43,561,-944,23.5,2.8,-25.0,23.8,2.8,-24.5,5.73,2.42,-27.9,28.9
2013-03-21 01:54:00,0.0,1.9240,0.0011,404.70,0.34,20.8,29.4,138.08,30.21,24.66,36.41,0.04,-272.75,-272.76,-43,561,-944,23.5,2.8,-25.0,23.8,2.8,-24.6,5.73,2.42,-27.9,28.8
2013-03-21 01:55:00,0.0,1.9241,0.0009,404.73,0.35,17.4,22.7,138.08,30.20,24.65,36.41,0.04,-272.76,-272.76,-43,561,-943,23.4,2.8,-25.0,23.8,2.8,-24.5,5.73,2.42,-27.9,28.8
2013-03-21 01:56:00,0.0,1.9239,0.0010,404.67,0.37,23.8,25.7,138.08,30.19,24.66,36.42,0.04,-272.75,-272.76,-43,561,-944,23.4,2.8,-24.9,23.7,2.9,-24.5,5.73,2.41,-28.0,28.7
2013-03-21 01:57:00,0.0,1.9242,0.0009,404.70,0.37,15.6,23.5,138.08,30.18,24.65,36.41,0.04,-272.76,-272.76,-43,561,-944,23.3,2.8,-24.9,23.7,2.9,-24.5,5.73,2.42,-28.0,28.7
2013-03-21 01:58:00,0.0,1.9238,0.0011,404.69,0.36,24.2,30.0,138.08,30.17,24.66,36.41,0.04,-272.75,-272.75,-43,561,-943,23.3,2.8,-24.9,23.7,2.9,-24.4,5.73,2.42,-28.0,28.7
2013-03-21 01:59:00,0.0,1.9239,0.0009,404.59,0.32,17.0,22.1,138.08,30.15,24.66,36.42,0.04,-272.76,-272.75,-43,561,-943,23.2,2.9,-24.8,23.6,2.9,-24.4,5.73,2.42,-28.0,28.6
2013-03-21 02:00:00,0.0,1.9237,0.0010,404.51,0.33,19.1,24.3,138.08,30.14,24.65,36.42,0.04,-272.76,-272.75,-43,560,-944,23.2,2.9,-24.8,23.6,2.9,-24.4,5.73,2.42,-28.0,28.5
2013-03-21 02:01:00,0.0,1.9237,0.0010,404.48,0.36,17.0,26.1,138.08,30.13,24.65,36.42,0.04,-272.75,-272.75,-43,560,-943,23.1,2.9,-24.7,23.6,2.9,-24.3,5.73,2.42,-28.0,28.5
2013-03-21 02:02:00,0.0,1.9235,0.0010,404.52,0.31,23.8,29.1,138.08,30.11,24.66,36.42,0.04,-272.76,-272.76,-43,560,-943,23.1,2.9,-24.7,23.5,3.0,-24.3,5.73,2.42,-28.1,28.5
2013-03-21 02:03:00,0.0,1.9233,0.0012,404.39,0.39,18.3,26.2,138.09,30.10,24.66,36.43,0.04,-272.76,-272.75,-43,560,-943,23.0,3.0,-24.6,23.5,3.0,-24.2,5.73,2.41,-28.1,28.4
2013-03-21 02:04:00,0.0,1.9235,0.0011,404.62,0.31,20.1,26.0,138.09,30.08,24.66,36.42,0.04,-272.75,-272.76,-43,560,-944,22.9,3.0,-24.5,23.4,3.0,-24.1,5.73,2.42,-28.1,28.4
2013-03-21 02:05:00,0.0,1.9232,0.0009,404.55,0.32,21.0,27.4,138.09,30.07,24.66,36.42,0.04,-272.76,-272.76,-43,559,-943,22.9,3.0,-24.4,23.4,3.1,-24.0,5.73,2.42,-28.1,28.3
2013-03-21 02:06:00,0.0,1.9233,0.0011,404.54,0.29,20.9,24.0,138.09,30.05,24.65,36.42,0.04,-272.76,-272.75,-43,560,-942,22.9,3.1,-24.2,23.3,3.1,-23.9,5.73,2.41,-28.2,28.3
2013-03-21 02:07:00,0.0,1.9235,0.0011,404.59,0.40,18.9,26.9,138.09,30.04,24.65,36.41,0.04,-272.75,-272.75,-43,559,-943,22.8,3.1,-24.1,23.3,3.1,-23.8,5.73,2.42,-28.2,28.3
2013-03-21 02:08:00,0.0,1.9232,0.0012,404.63,0.35,17.1,22.8,138.09,30.02,24.65,36.41,0.04,-272.75,-272.75,-43,559,-943,22.8,3.2,-24.0,23.2,3.2,-23.6,5.73,2.42,-28.2,28.2
2013-03-21 02:09:00,0.0,1.9232,0.0010,404.75,0.26,18.1,24.7,138.09,30.01,24.65,36.41,0.04,-272.75,-272.76,-43,559,-942,22.7,3.2,-23.9,23.2,3.2,-23.5,5.73,2.42,-28.2,28.2
2013-03-21 02:10:00,0.0,1.9227,0.0012,404.55,0.37,14.8,21.8,138.09,29.99,24.66,36.42,0.04,-272.75,-272.76,-43,559,-942,22.7,3.3,-23.8,23.2,3.3,-23.4,5.73,2.42,-28.2,28.2
2013-03-21 02:11:00,0.0,1.9234,0.0010,404.61,0.30,19.0,26.4,138.09,29.97,24.65,36.41,0.04,-272.76,-272.76,-42,559,-943,22.6,3.3,-23.7,23.1,3.3,-23.3,5.73,2.43,-28.2,28.1
2013-03-21 02:12:00,0.0,1.9230,0.0009,404.58,0.27,21.5,28.6,138.09,29.96,24.65,36.42,0.04,-272.76,-272.76,-42,559,-943,22.6,3.3,-23.7,23.1,3.3,-23.3,5.73,2.43,-28.3,28.1
2013-03-21 02:13:00,0.0,1.9233,0.0010,404.53,0.31,18.8,31.8,138.10,29.94,24.66,36.42,0.04,-272.76,-272.76,-42,558,-942,22.5,3.3,-23.7,23.0,3.3,-23.3,5.73,2.43,-28.3,28.1
2013-03-21 02:14:00,0.0,1.9231,0.0009,404.66,0.38,18.2,25.9,138.10,29.92,24.65,36.41,0.04,-272.76,-272.75,-43,558,-942,22.4,3.3,-23.7,23.0,3.4,-23.3,5.73,2.44,-28.3,28.1
2013-03-21 02:15:00,0.0,1.9233,0.0010,404.69,0.31,13.7,21.9,138.10,29.90,24.65,36.41,0.04,-272.76,-272.76,-42,558,-943,22.4,3.3,-23.7,22.9,3.4,-23.3,5.73,2.44,-28.3,28.1
2013-03-21 02:16:00,0.0,1.9231,0.0011,404.55,0.33,20.8,25.1,138.10,29.89,24.66,36.42,0.04,-272.76,-272.76,-42,558,-942,22.3,3.3,-23.7,22.9,3.3,-23.4,5.73,2.44,-28.3,28.1
2013-03-21 02:17:00,0.0,1.9233,0.0011,404.63,0.29,15.1,20.3,138.10,29.87,24.65,36.42,0.04,-272.76,-272.76,-42,558,-942,22.2,3.3,-23.8,22.8,3.3,-23.4,5.73,2.45,-28.3,28.0
2013-03-21 02:18:00,0.0,1.9236,0.0012,404.64,0.30,15.9,24.6,138.10,29.85,24.66,36.42,0.04,-272.76,-272.76,-42,558,-943,22.2,3.3,-23.8,22.8,3.3,-23.4,5.73,2.45,-28.3,28.0